This is the latest recevied weather packets stored in our database for station/object KB1MS. If no packets are shown the sender has not sent any weather packets the latest 10 day(s).
| Time | Temp. | Humidity | Pressure | Rain* | Wind** | Luminosity | Snow |
|---|---|---|---|---|---|---|---|
| 1788552416 | 29.44° C | 49% | 1008.1 hPa | 0 mm | - | 481 W/m² | - |
| 1788552112 | 28.89° C | 50% | 1007.9 hPa | 0 mm | - | 496 W/m² | - |
| 1788551810 | 29.44° C | 47% | 1008 hPa | 0 mm | - | 460 W/m² | - |
| 1788551509 | 28.89° C | 48% | 1008.1 hPa | 0 mm | - | 512 W/m² | - |
| 1788551204 | 28.33° C | 51% | 1008 hPa | 0 mm | - | 529 W/m² | - |
| 1788550903 | 28.33° C | 51% | 1008 hPa | 0 mm | - | 378 W/m² | - |
| 1788550599 | 28.89° C | 48% | 1007.7 hPa | 0 mm | - | 393 W/m² | - |
| 1788550295 | 28.33° C | 49% | 1007.8 hPa | 0 mm | - | 573 W/m² | - |
| 1788549995 | 27.22° C | 52% | 1007.8 hPa | 0 mm | - | 581 W/m² | - |
| 1788549691 | 26.11° C | 58% | 1007.8 hPa | 0 mm | - | 138 W/m² | - |
| 1788549387 | 26.67° C | 54% | 1007.8 hPa | 0 mm | - | 99 W/m² | - |
| 1788549084 | 26.67° C | 54% | 1008 hPa | 0 mm | - | 92 W/m² | - |
| 1788548779 | 27.22° C | 54% | 1008.1 hPa | 0 mm | - | 116 W/m² | - |
| 1788548475 | 27.22° C | 52% | 1008 hPa | 0 mm | - | 637 W/m² | - |
| 1788548172 | 26.67° C | 54% | 1008.2 hPa | 0 mm | - | 132 W/m² | - |
| 1788547866 | 26.67° C | 53% | 1008.2 hPa | 0 mm | - | 185 W/m² | - |
| 1788547565 | 26.67° C | 54% | 1008.5 hPa | 0 mm | - | 132 W/m² | - |
| 1788547261 | 27.22° C | 52% | 1008.2 hPa | 0 mm | - | 112 W/m² | - |
| 1788546955 | 27.78° C | 50% | 1007.9 hPa | 0 mm | - | 213 W/m² | - |
| 1788546651 | 28.33° C | 48% | 1008.1 hPa | 0 mm | - | 669 W/m² | - |
| 1788546347 | 28.89° C | 46% | 1008 hPa | 0 mm | - | 685 W/m² | - |
| 1788546046 | 28.89° C | 47% | 1008.2 hPa | 0 mm | - | 682 W/m² | - |
| 1788545743 | 28.33° C | 48% | 1007.9 hPa | 0 mm | - | 691 W/m² | - |
| 1788545443 | 28.33° C | 48% | 1007.9 hPa | 0 mm | - | 664 W/m² | - |
| 1788545143 | 27.78° C | 49% | 1008.3 hPa | 0 mm | - | 162 W/m² | - |
* Rain latest hour (hover to see other rain measurements)
** Current wind speed in m/s (hover to see current wind gust speed)